THY7KF LTFM-LOWW

Flight info

Callsign THY7KF
Flight time 1h 44m
Altitude 40000
Route TUDBU1D/35L TUDBU DCT ETUBA DCT APROB DCT BALUX DCT TORNO DCT NATEX NATEX2W
Aircraft A359/H-SDE2E3GHIJ3J4J5LM1ORWXY/LB1D1

Departure

Time 2026-05-05 15:39
Airport İstanbul Airport (LTFM)

Arrival

Time 2026-05-05 17:24
Airport Vienna International Airport (LOWW)
Time Latitude Longitude Altitude Speed Heading
2026-05-05 15:08 41.26246 28.73643 320 ft 0 kts 71°
2026-05-05 15:30 41.26245 28.73637 319 ft 3 kts 70°
2026-05-05 15:30 41.26235 28.73604 317 ft 4 kts 62°
2026-05-05 15:30 41.26221 28.73573 316 ft 4 kts 53°
2026-05-05 15:31 41.26203 28.73546 317 ft 4 kts 42°
2026-05-05 15:31 41.26182 28.73525 317 ft 4 kts 27°
2026-05-05 15:31 41.26160 28.73514 317 ft 1 kts
2026-05-05 15:35 41.26183 28.73515 316 ft 7 kts 356°
2026-05-05 15:36 41.26215 28.73481 318 ft 7 kts 297°
2026-05-05 15:36 41.26221 28.73407 317 ft 10 kts 270°
2026-05-05 15:36 41.26220 28.73304 317 ft 13 kts 269°
2026-05-05 15:36 41.26219 28.73190 316 ft 11 kts 269°
2026-05-05 15:37 41.26218 28.73072 316 ft 14 kts 269°
2026-05-05 15:37 41.26217 28.72984 317 ft 9 kts 269°
2026-05-05 15:37 41.26216 28.72890 317 ft 11 kts 269°
2026-05-05 15:37 41.26215 28.72778 319 ft 13 kts 269°
2026-05-05 15:38 41.26213 28.72635 319 ft 17 kts 269°
2026-05-05 15:38 41.26220 28.72545 319 ft 7 kts 304°
2026-05-05 15:38 41.26269 28.72524 319 ft 9 kts 357°
2026-05-05 15:38 41.26331 28.72523 317 ft 16 kts 359°
2026-05-05 15:39 41.26653 28.72517 314 ft 84 kts 359°
2026-05-05 15:39 41.27482 28.72501 295 ft 152 kts 359°
2026-05-05 15:39 41.28661 28.72478 782 ft 172 kts 360°
2026-05-05 15:39 41.29834 28.72460 1759 ft 170 kts 359°
2026-05-05 15:40 41.31096 28.72451 2213 ft 195 kts
2026-05-05 15:40 41.32543 28.72466 2700 ft 219 kts
2026-05-05 15:40 41.34132 28.72409 3275 ft 238 kts 352°
2026-05-05 15:40 41.35718 28.71694 4052 ft 246 kts 329°
2026-05-05 15:41 41.37013 28.70206 5055 ft 247 kts 316°
2026-05-05 15:41 41.38178 28.68509 6038 ft 250 kts 314°
2026-05-05 15:41 41.39334 28.66761 7044 ft 252 kts 315°
2026-05-05 15:41 41.40494 28.64993 8004 ft 255 kts 315°
2026-05-05 15:42 41.41667 28.63201 9012 ft 259 kts 315°
2026-05-05 15:42 41.42856 28.61381 10040 ft 262 kts 315°
2026-05-05 15:42 41.44086 28.59500 10664 ft 280 kts 315°
2026-05-05 15:42 41.45428 28.57453 11063 ft 304 kts 315°
2026-05-05 15:43 41.46840 28.55288 11773 ft 315 kts 315°
2026-05-05 15:43 41.48283 28.53065 12693 ft 319 kts 315°
2026-05-05 15:43 41.49749 28.50805 13575 ft 325 kts 315°
2026-05-05 15:43 41.51246 28.48501 14344 ft 332 kts 314°
2026-05-05 15:44 41.52768 28.46155 15139 ft 336 kts 314°
2026-05-05 15:44 41.54306 28.43781 15938 ft 340 kts 314°
2026-05-05 15:44 41.55867 28.41372 16722 ft 345 kts 314°
2026-05-05 15:44 41.57449 28.38929 17514 ft 350 kts 314°
2026-05-05 15:45 41.59049 28.36455 18300 ft 355 kts 314°
2026-05-05 15:45 41.60674 28.33941 19010 ft 360 kts 313°
2026-05-05 15:45 41.62322 28.31389 19710 ft 365 kts 313°
2026-05-05 15:45 41.63990 28.28804 20416 ft 369 kts 314°
2026-05-05 15:46 41.65667 28.26202 21267 ft 370 kts 313°
2026-05-05 15:46 41.67357 28.23579 21988 ft 375 kts 313°
2026-05-05 15:46 41.69071 28.20917 22693 ft 380 kts 313°
2026-05-05 15:46 41.70809 28.18215 23380 ft 385 kts 313°
2026-05-05 15:47 41.72567 28.15478 23981 ft 390 kts 313°
2026-05-05 15:47 41.73745 28.13643 24350 ft 393 kts 313°
2026-05-05 15:47 41.76152 28.09891 25079 ft 400 kts 313°
2026-05-05 15:47 41.77977 28.07044 25607 ft 405 kts 313°
2026-05-05 15:48 41.79823 28.04159 26149 ft 410 kts 313°
2026-05-05 15:48 41.81689 28.01241 26673 ft 415 kts 312°
2026-05-05 15:48 41.83578 27.98285 27183 ft 421 kts 312°
2026-05-05 15:48 41.85498 27.95277 27621 ft 428 kts 312°
2026-05-05 15:49 41.87443 27.92226 28166 ft 432 kts 312°
2026-05-05 15:49 41.89404 27.89146 28700 ft 436 kts 312°
2026-05-05 15:49 41.90713 27.87089 29039 ft 439 kts 312°
2026-05-05 15:49 41.93383 27.82889 29721 ft 444 kts 312°
2026-05-05 15:50 41.94708 27.80801 30185 ft 443 kts 312°
2026-05-05 15:50 41.96714 27.77640 30653 ft 446 kts 312°
2026-05-05 15:50 41.98786 27.74509 31046 ft 449 kts 315°
2026-05-05 15:50 42.00968 27.71487 31457 ft 452 kts 316°
2026-05-05 15:51 42.03207 27.68504 31875 ft 455 kts 317°
2026-05-05 15:51 42.05473 27.65506 32263 ft 458 kts 317°
2026-05-05 15:51 42.07742 27.62483 32666 ft 461 kts 316°
2026-05-05 15:51 42.10012 27.59422 33184 ft 460 kts 316°
2026-05-05 15:52 42.12261 27.56361 33667 ft 461 kts 316°
2026-05-05 15:52 42.14519 27.53267 33941 ft 466 kts 316°
2026-05-05 15:52 42.16800 27.50128 34118 ft 472 kts 316°
2026-05-05 15:52 42.19099 27.46957 34421 ft 473 kts 316°
2026-05-05 15:53 42.21398 27.43779 34822 ft 473 kts 315°
2026-05-05 15:53 42.23685 27.40614 35330 ft 469 kts 315°
2026-05-05 15:53 42.25947 27.37481 35872 ft 464 kts 315°
2026-05-05 15:53 42.28192 27.34370 36381 ft 461 kts 315°
2026-05-05 15:54 42.30425 27.31273 36794 ft 460 kts 315°
2026-05-05 15:54 42.32655 27.28180 37173 ft 459 kts 315°
2026-05-05 15:54 42.34876 27.25094 37557 ft 458 kts 315°
2026-05-05 15:54 42.37064 27.22053 37944 ft 456 kts 315°
2026-05-05 15:55 42.39270 27.18983 38323 ft 455 kts 315°
2026-05-05 15:55 42.41470 27.15916 38677 ft 453 kts 315°
2026-05-05 15:55 42.43664 27.12856 38918 ft 453 kts 315°
2026-05-05 15:55 42.45862 27.09787 39111 ft 455 kts 315°
2026-05-05 15:56 42.48067 27.06704 39301 ft 456 kts 315°
2026-05-05 15:56 42.50273 27.03618 39503 ft 456 kts 315°
2026-05-05 15:56 42.52479 27.00527 39723 ft 456 kts 315°
2026-05-05 15:56 42.54685 26.97432 39929 ft 456 kts 315°
2026-05-05 15:57 42.56892 26.94334 40022 ft 458 kts 315°
2026-05-05 15:57 42.61308 26.88122 40033 ft 456 kts 315°
2026-05-05 15:58 42.65713 26.81914 40030 ft 456 kts 315°
2026-05-05 15:58 42.70084 26.75740 40028 ft 456 kts 315°
2026-05-05 15:59 42.74512 26.69471 40029 ft 456 kts 315°
2026-05-05 15:59 42.78899 26.63248 40020 ft 456 kts 314°
2026-05-05 16:00 42.83268 26.57075 40023 ft 455 kts 315°
2026-05-05 16:00 42.87781 26.51024 40022 ft 455 kts 316°
2026-05-05 16:01 42.92326 26.45007 40018 ft 456 kts 316°
2026-05-05 16:01 42.96863 26.38945 40017 ft 457 kts 316°
2026-05-05 16:02 43.01386 26.32855 40018 ft 457 kts 316°
2026-05-05 16:02 43.05909 26.26743 40017 ft 457 kts 316°
2026-05-05 16:03 43.10400 26.20660 40013 ft 457 kts 316°
2026-05-05 16:03 43.14913 26.14536 40011 ft 457 kts 316°
2026-05-05 16:04 43.19421 26.08407 40008 ft 457 kts 316°
2026-05-05 16:04 43.23924 26.02269 40001 ft 456 kts 316°
2026-05-05 16:05 43.28423 25.96125 40000 ft 456 kts 316°
2026-05-05 16:05 43.32913 25.89980 40002 ft 456 kts 316°
2026-05-05 16:06 43.37398 25.83827 40007 ft 456 kts 316°
2026-05-05 16:06 43.41889 25.77652 40005 ft 457 kts 315°
2026-05-05 16:07 43.46377 25.71468 40007 ft 457 kts 315°
2026-05-05 16:07 43.50863 25.65273 40010 ft 457 kts 315°
2026-05-05 16:08 43.55343 25.59072 40010 ft 457 kts 315°
2026-05-05 16:08 43.59815 25.52868 40001 ft 456 kts 315°
2026-05-05 16:09 43.64282 25.46658 40016 ft 455 kts 315°
2026-05-05 16:09 43.68738 25.40449 40007 ft 456 kts 315°
2026-05-05 16:10 43.73208 25.34207 40001 ft 456 kts 315°
2026-05-05 16:10 43.77665 25.27967 39994 ft 456 kts 315°
2026-05-05 16:11 43.82109 25.21729 39998 ft 455 kts 315°
2026-05-05 16:12 43.90606 25.08726 39994 ft 455 kts 312°
2026-05-05 16:13 44.01040 24.92229 39987 ft 454 kts 312°
2026-05-05 16:13 44.05226 24.85646 39982 ft 454 kts 312°
2026-05-05 16:14 44.13574 24.72468 39985 ft 453 kts 312°
2026-05-05 16:15 44.21889 24.59276 39973 ft 453 kts 312°
2026-05-05 16:16 44.30188 24.46048 39977 ft 453 kts 312°
2026-05-05 16:17 44.36379 24.36140 39973 ft 453 kts 312°
2026-05-05 16:18 44.42590 24.26165 39966 ft 453 kts 312°
2026-05-05 16:19 44.48788 24.16176 39986 ft 453 kts 311°
2026-05-05 16:19 44.54977 24.06165 39985 ft 453 kts 311°
2026-05-05 16:20 44.63221 23.92778 39965 ft 454 kts 311°
2026-05-05 16:22 44.73517 23.75966 39969 ft 454 kts 311°
2026-05-05 16:23 44.81732 23.62480 39968 ft 454 kts 311°
2026-05-05 16:23 44.87881 23.52344 39970 ft 453 kts 311°
2026-05-05 16:24 44.91973 23.45577 39976 ft 453 kts 311°
2026-05-05 16:25 44.98089 23.35434 39975 ft 452 kts 311°
2026-05-05 16:25 45.04197 23.25268 39961 ft 452 kts 311°
2026-05-05 16:26 45.12295 23.11732 39989 ft 452 kts 311°
2026-05-05 16:27 45.16352 23.04928 39994 ft 452 kts 310°
2026-05-05 16:27 45.20405 22.98112 39978 ft 452 kts 311°
2026-05-05 16:28 45.24457 22.91283 39995 ft 452 kts 310°
2026-05-05 16:28 45.28501 22.84448 39994 ft 452 kts 310°
2026-05-05 16:29 45.32547 22.77595 39991 ft 452 kts 310°
2026-05-05 16:29 45.36620 22.70681 39992 ft 453 kts 310°
2026-05-05 16:30 45.40659 22.63806 39991 ft 453 kts 310°
2026-05-05 16:30 45.44668 22.56963 39989 ft 453 kts 310°
2026-05-05 16:31 45.48700 22.50066 39989 ft 453 kts 310°
2026-05-05 16:31 45.52726 22.43163 39979 ft 453 kts 310°
2026-05-05 16:32 45.56751 22.36245 39965 ft 453 kts 310°
2026-05-05 16:32 45.60776 22.29309 39965 ft 454 kts 310°
2026-05-05 16:33 45.64805 22.22350 39961 ft 454 kts 310°
2026-05-05 16:33 45.68822 22.15392 39960 ft 454 kts 310°
2026-05-05 16:34 45.72839 22.08418 39949 ft 454 kts 309°
2026-05-05 16:34 45.76775 22.01568 39950 ft 454 kts 309°
2026-05-05 16:35 45.80727 21.94674 39950 ft 454 kts 309°
2026-05-05 16:35 45.84754 21.87630 39945 ft 454 kts 309°
2026-05-05 16:36 45.88756 21.80612 39947 ft 454 kts 309°
2026-05-05 16:36 45.92724 21.73637 39942 ft 454 kts 309°
2026-05-05 16:37 45.96071 21.67740 39938 ft 454 kts 309°
2026-05-05 16:37 46.00060 21.60696 39940 ft 454 kts 309°
2026-05-05 16:38 46.04045 21.53639 39937 ft 454 kts 309°
2026-05-05 16:38 46.08029 21.46570 39938 ft 455 kts 309°
2026-05-05 16:39 46.12013 21.39479 39938 ft 455 kts 309°
2026-05-05 16:39 46.15993 21.32379 39938 ft 455 kts 309°
2026-05-05 16:40 46.19940 21.25322 39936 ft 455 kts 308°
2026-05-05 16:40 46.23911 21.18201 39941 ft 455 kts 308°
2026-05-05 16:41 46.27882 21.11059 39938 ft 456 kts 308°
2026-05-05 16:41 46.31850 21.03907 39935 ft 456 kts 308°
2026-05-05 16:42 46.35813 20.96745 39930 ft 456 kts 308°
2026-05-05 16:42 46.39773 20.89572 39925 ft 456 kts 308°
2026-05-05 16:43 46.43735 20.82375 39923 ft 457 kts 308°
2026-05-05 16:43 46.47697 20.75159 39923 ft 457 kts 308°
2026-05-05 16:44 46.51656 20.67930 39920 ft 457 kts 308°
2026-05-05 16:44 46.55608 20.60696 39925 ft 457 kts 308°
2026-05-05 16:45 46.59561 20.53441 39923 ft 459 kts 308°
2026-05-05 16:45 46.63526 20.46145 39922 ft 459 kts 307°
2026-05-05 16:46 46.67483 20.38842 39923 ft 459 kts 307°
2026-05-05 16:46 46.71426 20.31549 39923 ft 459 kts 307°
2026-05-05 16:47 46.75374 20.24225 39918 ft 459 kts 307°
2026-05-05 16:47 46.79319 20.16890 39905 ft 459 kts 307°
2026-05-05 16:48 46.83258 20.09544 39921 ft 459 kts 307°
2026-05-05 16:48 46.87192 20.02189 39918 ft 459 kts 307°
2026-05-05 16:49 46.91092 19.94878 39905 ft 459 kts 307°
2026-05-05 16:49 46.95015 19.87503 39905 ft 459 kts 307°
2026-05-05 16:50 46.98931 19.80123 39909 ft 459 kts 307°
2026-05-05 16:50 47.02841 19.72735 39924 ft 459 kts 307°
2026-05-05 16:51 47.06752 19.65324 39915 ft 459 kts 307°
2026-05-05 16:51 47.10653 19.57913 39919 ft 459 kts 307°
2026-05-05 16:52 47.14541 19.50506 39928 ft 458 kts 307°
2026-05-05 16:52 47.18429 19.43077 39929 ft 458 kts 307°
2026-05-05 16:53 47.22303 19.35657 39361 ft 456 kts 307°
2026-05-05 16:53 47.24245 19.31929 38556 ft 462 kts 306°
2026-05-05 16:53 47.26196 19.28180 37778 ft 463 kts 306°
2026-05-05 16:54 47.27723 19.25241 37262 ft 462 kts 306°
2026-05-05 16:54 47.29672 19.21488 36630 ft 460 kts 306°
2026-05-05 16:54 47.31611 19.17748 35972 ft 459 kts 306°
2026-05-05 16:54 47.33476 19.13926 35341 ft 457 kts 301°
2026-05-05 16:55 47.34999 19.09851 34758 ft 453 kts 296°
2026-05-05 16:55 47.36390 19.05700 34262 ft 448 kts 295°
2026-05-05 16:55 47.37716 19.01567 33743 ft 444 kts 294°
2026-05-05 16:55 47.39003 18.97459 33187 ft 439 kts 294°
2026-05-05 16:56 47.40268 18.93376 32693 ft 434 kts 293°
2026-05-05 16:56 47.41512 18.89349 32190 ft 429 kts 293°
2026-05-05 16:56 47.42745 18.85363 31689 ft 424 kts 293°
2026-05-05 16:56 47.43966 18.81419 31221 ft 420 kts 294°
2026-05-05 16:57 47.45177 18.77513 30713 ft 416 kts 294°
2026-05-05 16:57 47.46378 18.73640 30252 ft 413 kts 294°
2026-05-05 16:57 47.47567 18.69801 29738 ft 409 kts 293°
2026-05-05 16:57 47.48743 18.66002 29234 ft 404 kts 293°
2026-05-05 16:58 47.49904 18.62249 28761 ft 399 kts 293°
2026-05-05 16:58 47.51044 18.58554 28295 ft 394 kts 293°
2026-05-05 16:58 47.52173 18.54891 27835 ft 390 kts 293°
2026-05-05 16:58 47.53292 18.51251 27348 ft 386 kts 293°
2026-05-05 16:59 47.54236 18.47566 26899 ft 382 kts 287°
2026-05-05 16:59 47.55061 18.43847 26450 ft 378 kts 286°
2026-05-05 16:59 47.55861 18.40154 25984 ft 376 kts 286°
2026-05-05 16:59 47.56651 18.36473 25511 ft 373 kts 286°
2026-05-05 17:00 47.57430 18.32828 25064 ft 371 kts 285°
2026-05-05 17:00 47.58203 18.29198 24701 ft 367 kts 285°
2026-05-05 17:00 47.58965 18.25615 24249 ft 364 kts 285°
2026-05-05 17:00 47.59721 18.22046 23788 ft 363 kts 285°
2026-05-05 17:01 47.60476 18.18476 23276 ft 362 kts 285°
2026-05-05 17:01 47.61225 18.14923 22777 ft 360 kts 285°
2026-05-05 17:01 47.61968 18.11400 22305 ft 357 kts 285°
2026-05-05 17:01 47.62703 18.07904 21839 ft 355 kts 285°
2026-05-05 17:02 47.63433 18.04437 21359 ft 352 kts 284°
2026-05-05 17:02 47.64159 18.00967 20896 ft 350 kts 284°
2026-05-05 17:02 47.64880 17.97521 20426 ft 349 kts 285°
2026-05-05 17:02 47.65595 17.94103 19961 ft 347 kts 284°
2026-05-05 17:03 47.66310 17.90674 19492 ft 346 kts 284°
2026-05-05 17:03 47.67018 17.87265 19034 ft 346 kts 284°
2026-05-05 17:03 47.67729 17.83860 18567 ft 345 kts 283°
2026-05-05 17:03 47.68433 17.80456 18087 ft 345 kts 284°
2026-05-05 17:04 47.69135 17.77057 17584 ft 344 kts 285°
2026-05-05 17:04 47.69837 17.73668 17121 ft 342 kts 283°
2026-05-05 17:04 47.70534 17.70303 16648 ft 340 kts 283°
2026-05-05 17:04 47.71224 17.66952 16178 ft 339 kts 284°
2026-05-05 17:05 47.71911 17.63615 15720 ft 337 kts 283°
2026-05-05 17:05 47.72594 17.60302 15265 ft 335 kts 283°
2026-05-05 17:05 47.73270 17.56994 14788 ft 334 kts 284°
2026-05-05 17:05 47.73944 17.53706 14337 ft 333 kts 283°
2026-05-05 17:06 47.74700 17.50491 14154 ft 331 kts 289°
2026-05-05 17:06 47.75569 17.47257 13910 ft 340 kts 288°
2026-05-05 17:06 47.76454 17.44013 13667 ft 339 kts 289°
2026-05-05 17:06 47.77350 17.40757 13391 ft 339 kts 289°
2026-05-05 17:07 47.78247 17.37516 13131 ft 339 kts 289°
2026-05-05 17:07 47.79135 17.34313 12870 ft 339 kts 290°
2026-05-05 17:07 47.80034 17.31081 12609 ft 338 kts 289°
2026-05-05 17:07 47.80943 17.27827 12345 ft 335 kts 289°
2026-05-05 17:08 47.81809 17.24701 12109 ft 333 kts 288°
2026-05-05 17:08 47.82687 17.21518 11855 ft 331 kts 289°
2026-05-05 17:08 47.83562 17.18374 11608 ft 319 kts 288°
2026-05-05 17:08 47.84407 17.15325 11369 ft 316 kts 287°
2026-05-05 17:09 47.85228 17.12344 11116 ft 315 kts 287°
2026-05-05 17:09 47.86055 17.09342 10863 ft 312 kts 287°
2026-05-05 17:09 47.86873 17.06362 10637 ft 311 kts 288°
2026-05-05 17:09 47.87698 17.03378 10401 ft 311 kts 287°
2026-05-05 17:10 47.88515 17.00400 10156 ft 311 kts 289°
2026-05-05 17:10 47.89330 16.97415 9912 ft 310 kts 286°
2026-05-05 17:10 47.90145 16.94439 9680 ft 308 kts 286°
2026-05-05 17:10 47.90949 16.91492 9420 ft 307 kts 288°
2026-05-05 17:11 47.91747 16.88583 9167 ft 308 kts 288°
2026-05-05 17:11 47.92564 16.85603 8912 ft 301 kts 288°
2026-05-05 17:11 47.93346 16.82740 8653 ft 300 kts 287°
2026-05-05 17:11 47.94136 16.79827 8398 ft 304 kts 288°
2026-05-05 17:12 47.94928 16.76912 8144 ft 303 kts 288°
2026-05-05 17:12 47.95717 16.74010 7899 ft 301 kts 286°
2026-05-05 17:12 47.96501 16.71117 7642 ft 299 kts 286°
2026-05-05 17:12 47.97280 16.68246 7392 ft 300 kts 286°
2026-05-05 17:13 47.98056 16.65373 7164 ft 293 kts 287°
2026-05-05 17:13 47.98802 16.62652 7029 ft 279 kts 285°
2026-05-05 17:13 47.99509 16.60030 6999 ft 275 kts 286°
2026-05-05 17:13 48.00228 16.57354 6995 ft 275 kts 286°
2026-05-05 17:14 48.00932 16.54739 6994 ft 274 kts 285°
2026-05-05 17:14 48.01656 16.52069 6993 ft 274 kts 286°
2026-05-05 17:14 48.02526 16.49512 6994 ft 278 kts 293°
2026-05-05 17:14 48.03508 16.47023 6992 ft 278 kts 294°
2026-05-05 17:15 48.04504 16.44545 6992 ft 279 kts 295°
2026-05-05 17:15 48.05494 16.42083 6775 ft 274 kts 294°
2026-05-05 17:15 48.06470 16.39645 6403 ft 271 kts 294°
2026-05-05 17:15 48.07421 16.37270 6278 ft 260 kts 295°
2026-05-05 17:16 48.08318 16.35039 6171 ft 247 kts 295°
2026-05-05 17:16 48.09203 16.32824 5864 ft 244 kts 295°
2026-05-05 17:16 48.10065 16.30643 5520 ft 242 kts 295°
2026-05-05 17:16 48.10900 16.28539 5264 ft 236 kts 294°
2026-05-05 17:17 48.11743 16.26410 4936 ft 232 kts 294°
2026-05-05 17:17 48.12535 16.24396 4757 ft 223 kts 292°
2026-05-05 17:17 48.13534 16.22611 4373 ft 232 kts 319°
2026-05-05 17:17 48.15102 16.21747 3940 ft 247 kts 351°
2026-05-05 17:18 48.16804 16.22159 3581 ft 252 kts 24°
2026-05-05 17:18 48.18297 16.23384 3473 ft 241 kts 34°
2026-05-05 17:18 48.19553 16.24874 3473 ft 223 kts 55°
2026-05-05 17:18 48.20088 16.26910 3506 ft 203 kts 90°
2026-05-05 17:19 48.20069 16.28946 3494 ft 195 kts 107°
2026-05-05 17:19 48.19607 16.30806 3492 ft 188 kts 125°
2026-05-05 17:19 48.19004 16.32550 3476 ft 188 kts 124°
2026-05-05 17:19 48.18447 16.34274 3413 ft 178 kts 123°
2026-05-05 17:20 48.17933 16.35918 3196 ft 171 kts 123°
2026-05-05 17:20 48.17425 16.37499 2953 ft 165 kts 124°
2026-05-05 17:20 48.16933 16.39010 2751 ft 159 kts 124°
2026-05-05 17:20 48.16451 16.40493 2512 ft 157 kts 124°
2026-05-05 17:21 48.15998 16.41900 2328 ft 143 kts 124°
2026-05-05 17:21 48.15580 16.43190 2130 ft 132 kts 123°
2026-05-05 17:21 48.15199 16.44374 1921 ft 122 kts 131°
2026-05-05 17:22 48.14459 16.46631 1606 ft 122 kts 128°
2026-05-05 17:22 48.14091 16.47771 1424 ft 121 kts 127°
2026-05-05 17:22 48.13729 16.48895 1248 ft 119 kts 125°
2026-05-05 17:22 48.13490 16.49653 1113 ft 120 kts 125°
2026-05-05 17:23 48.13120 16.50777 950 ft 119 kts 126°
2026-05-05 17:23 48.12772 16.51866 809 ft 118 kts 124°
2026-05-05 17:23 48.12408 16.52968 690 ft 119 kts 125°
2026-05-05 17:23 48.12065 16.54021 631 ft 113 kts 125°
2026-05-05 17:24 48.11813 16.54746 630 ft 79 kts 116°
2026-05-05 17:24 48.11649 16.55264 625 ft 41 kts 115°
2026-05-05 17:24 48.11588 16.55465 623 ft 11 kts 115°
2026-05-05 17:24 48.11547 16.55591 630 ft 14 kts 115°
2026-05-05 17:25 48.11513 16.55725 627 ft 14 kts 103°
2026-05-05 17:25 48.11503 16.55823 616 ft 14 kts 94°
2026-05-05 17:25 48.11505 16.56021 616 ft 12 kts 84°
2026-05-05 17:25 48.11510 16.56080 616 ft 0 kts 77°
2026-05-05 17:26 48.11545 16.56138 629 ft 11 kts 34°
2026-05-05 17:26 48.11608 16.56190 630 ft 10 kts 31°
2026-05-05 17:26 48.11669 16.56253 630 ft 12 kts 29°
2026-05-05 17:26 48.11740 16.56305 626 ft 10 kts 26°
2026-05-05 17:27 48.11751 16.56313 631 ft 2 kts 25°
2026-05-05 17:27 48.11771 16.56314 627 ft 2 kts 347°
2026-05-05 17:27 48.11785 16.56296 630 ft 4 kts 314°
2026-05-05 17:27 48.11803 16.56262 628 ft 0 kts 306°
2026-05-05 17:28 48.11809 16.56249 630 ft 3 kts 304°
2026-05-05 17:28 48.11816 16.56233 629 ft 0 kts 304°
2026-05-05 17:28 48.11817 16.56231 629 ft 1 kts 304°
2026-05-05 17:28 48.11820 16.56226 630 ft 0 kts 304°
2026-05-05 17:29 48.11820 16.56225 630 ft 1 kts 304°
2026-05-05 17:29 48.11821 16.56223 630 ft 0 kts 304°